Home   Weather   Uelzen   Past weeks

Flag for Germany Past Weather in Uelzen, Lower Saxony, Germany — Yesterday and Last 2 Weeks

Now
46 °F

Scattered clouds.


Feels Like: 42 °F
Forecast: 34 / 51 °F
Wind: 9 mph from West

Location: Fassberg

Current Time: Apr 28, 2017 at 10:37:18 am

Latest Report: Apr 28, 2017 at 9:20 am


Visibility: N/A

Pressure: 29.92 "Hg

Humidity: 57%

Dew Point: 32 °F

Location of UelzenLocation

Past Weather in Uelzen — Graph

°F

Uelzen Temperature Yesterday

Maximum temperature yesterday: 52 °F (at 4:20 pm)
Minimum temperature yesterday: 25 °F (at 5:20 am)
Average temperature yesterday: 39 °F

High & Low Weather Summary for the Past Weeks

 TemperatureHumidityPressure
High57 °F (Apr 21, 2:20 pm)100% (Apr 17, 3:20 am)30.63 "Hg (Apr 17, 3:20 am)
Low21 °F (Apr 20, 5:20 am)30% (Apr 27, 4:20 pm)29.59 "Hg (Apr 25, 5:20 am)
Average41 °F74%30.04 "Hg
* Reported Apr 13 8:20 am — Apr 28 8:20 am, Uelzen, Weather by CustomWeather, © 2017

Note: Actual official high and low records may vary slightly from our data, if they occured in-between our weather recording intervals... More about our weather records

Advertising

Uelzen Weather History for the Previous 24 Hours

Scroll right to see more
 ConditionsComfort  
Time TempWeatherWind HumidityBarometerVisibility
8:20 am
Fri, Apr 28
41 °FPassing clouds.7 mph66%29.92 "HgN/A
7:20 am32 °FPassing clouds.No wind87%29.92 "HgN/A
6:20 am27 °FPassing clouds.1 mph93%29.92 "HgN/A
5:20 am27 °FFog.2 mph93%29.92 "HgN/A
4:20 am28 °FFog.1 mph93%29.92 "HgN/A
3:20 am30 °FPassing clouds.1 mph93%29.92 "HgN/A
2:20 am32 °FPassing clouds.1 mph87%29.95 "HgN/A
1:20 am32 °FPassing clouds.1 mph87%29.95 "HgN/A
12:20 am36 °FPassing clouds.2 mph81%29.95 "HgN/A
11:20 pm
Thu, Apr 27
36 °FPassing clouds.1 mph75%29.95 "HgN/A
10:20 pm37 °FPassing clouds.1 mph75%29.95 "HgN/A
9:20 pm43 °FPassing clouds.2 mph61%29.95 "HgN/A
8:20 pm46 °FScattered clouds.6 mph50%29.95 "HgN/A
7:20 pm48 °FPartly sunny.8 mph46%29.95 "HgN/A
6:20 pm50 °FScattered clouds.9 mph43%29.95 "HgN/A
5:20 pm52 °FScattered clouds.9 mph35%29.95 "HgN/A
4:20 pm52 °FScattered clouds.9 mph30%29.95 "HgN/A
3:20 pm48 °FScattered clouds.12 mph37%29.95 "HgN/A
2:20 pm48 °FScattered clouds.12 mph40%29.95 "HgN/A
1:20 pm48 °FScattered clouds.14 mph40%29.95 "HgN/A
12:20 pm46 °FScattered clouds.10 mph50%29.95 "HgN/A
11:20 am46 °FScattered clouds.10 mph50%29.95 "HgN/A
10:20 am45 °FScattered clouds.9 mph61%29.95 "HgN/A
Weather by CustomWeather, © 2017

See weather overviewHow to use our weather pages